Location: Peterborough
(44.3091°N, 78.3197°W)
Time: 16:37:08
(UTC-04:00)

Explorer 7 - Pass Details

Date: 29 March 2023
Orbit: 477 x 653 km, 50.3° (Epoch: 04 June)

Event Time Altitude Azimuth Distance (km) Brightness Sun altitude
Rises 21:28:18 0° 297° (WNW) 2,794 12.1 -19.9°
Reaches altitude 10° 21:30:38 10° 298° (WNW) 1,860 10.7 -20.3°
Maximum altitude 21:34:52 84° 27° (NNE) 547 6.7 -21.0°
Enters shadow 21:35:18 70° 100° (E) 572 6.6 -21.0°
Drops below altitude 10° 21:38:50 10° 116° (ESE) 1,743 - -21.6°
Sets 21:40:58 0° 117° (ESE) 2,601 - -21.9°
